OneWeb SL0330

operational
NORAD ID: 49108 Int'l Des: 2021-075 Owner: ONEWEBN Country: UK Constellation: oneweb
LEOCIRCULARPOLARONEWEB_TYPE

Über OneWeb SL0330

Beschreibung wird geladen...

Live-Position

3D-Globus wird geladen...

Nächste Überflüge

Höhenverlauf

Altitude vs Time

uPlot chart will show altitude changes over time

Zweizeiliger Elementsatz

1 49108U 21075AK 25355.11235352 .00000139 00000-0 32609-3 0 9995
2 49108 87.9102 41.2867 0001517 99.2130 260.9173 13.17651456210175
Epoch: 21. Dez. 2025 • Age: 7 hours

Aktueller Status

Höhe 1195.8 km
Geschwindigkeit 7.26 km/s
Subsatellitenpunkt 14.91°N, 160.63°E
Startdatum 21. Aug. 2021
Alter 4.3 years
Typ internet

Technische Details

Klassifizierung Payload
Masse 148.00 kg
Trockenmasse 140.00 kg
Gesamtmasse 148.00 kg
Länge 1.30 m
Durchmesser 1.00 m
Spannweite 5.00 m
Form Trapezoid+2 pan
Hersteller ONEWUS
Bus-Typ ARROW
Phasenstatus In Orbit
Besitzer/Staat ONEWEBN/UK

Große Konstellationen

Loading constellations...